Newcastle, WY

6:17 AM MST on February 08, 2016 (GMT -0700)
Mondell

Weather History for KECS - December, 2013

Change the Weather History Date:

Thursday, December 19, 2013

  Actual Average (KCUT) Record (KCUT)
Temperature  
Mean Temperature 15 °F 23 °F  
Max Temperature 30 °F 33 °F 68 °F (1979)
Min Temperature 0 °F 13 °F -22 °F (1990)
Degree Days  
Heating Degree Days 50 42  
Month to date heating degree days 787  
Since 1 July heating degree days 2968  
Cooling Degree Days 0 0  
Month to date cooling degree days 0  
Year to date cooling degree days 177  
Moisture  
Dew Point 12 °F    
Average Humidity 82    
Maximum Humidity 100    
Minimum Humidity 72    
Precipitation  
Precipitation 0.01 in 0.01 in 0.45 in (2013)
Month to date precipitation 0.22  
Year to date precipitation 18.79  
Sea Level Pressure  
Sea Level Pressure 29.81 in    
Wind  
Wind Speed 9 mph (WNW)    
Max Wind Speed 22 mph    
Max Gust Speed 28 mph    
Visibility 6 miles    
Events Snow    
T = Trace of Precipitation, MM = Missing Value Source: NWS Daily Summary

Daily Weather History Graph

Daily Weather History Graph

Search for Another Location

Airport or City:

Trip Planner

Search our weather history database for the weather conditions in past years. The results will help you decide how hot, cold, wet, or windy it might be!

Date:

Astronomy

Dec. 19, 2013 Rise Set
Actual Time 7:27 AM MST 4:21 PM MST
Civil Twilight 6:54 AM MST 4:54 PM MST
Nautical Twilight 6:17 AM MST 5:31 PM MST
Astronomical Twilight 5:42 AM MST 6:06 PM MST
Moon 6:54 PM MST (12/19) 8:43 AM MST (12/19)
Length of Visible Light 10h 00m
Length of Day
8h 54m
Waning Gibbous, 95% of the Moon is Illuminated
Dec 19
Waning Gibbous
Dec 25
Last Quarter
Jan 1
New
Jan 7
First Quarter
Jan 15
Full

Hourly Weather History & Observations

Time (MST) Temp. Windchill Dew Point Humidity Pressure Visibility Wind Dir Wind Speed Gust Speed Precip Events Conditions
12:15 AM 30.2 °F 23.4 °F 23.0 °F 75% 29.72 in 10.0 mi SSE 6.9 mph - N/A   Clear
12:35 AM 28.4 °F 21.2 °F 23.0 °F 80% 29.71 in 10.0 mi SE 6.9 mph - N/A   Clear
12:55 AM 28.4 °F 22.2 °F 23.0 °F 80% 29.70 in 10.0 mi SE 5.8 mph - N/A   Clear
1:15 AM 28.4 °F 21.2 °F 23.0 °F 80% 29.70 in 10.0 mi SSE 6.9 mph - N/A   Clear
1:35 AM 28.4 °F 22.2 °F 23.0 °F 80% 29.70 in 10.0 mi SSE 5.8 mph - N/A   Clear
1:55 AM 26.6 °F 20.0 °F 23.0 °F 86% 29.70 in 10.0 mi SSE 5.8 mph - N/A   Clear
2:15 AM 28.4 °F 24.6 °F 23.0 °F 80% 29.70 in 10.0 mi South 3.5 mph - N/A   Clear
2:35 AM 28.4 °F 23.3 °F 23.0 °F 80% 29.70 in 10.0 mi SSE 4.6 mph - N/A   Clear
2:55 AM 28.4 °F 19.1 °F 23.0 °F 80% 29.69 in 10.0 mi SSE 10.4 mph - N/A   Clear
3:15 AM 28.4 °F 19.7 °F 23.0 °F 80% 29.69 in 10.0 mi SSE 9.2 mph - N/A   Clear
3:35 AM 28.4 °F 20.4 °F 23.0 °F 80% 29.69 in 10.0 mi SE 8.1 mph - N/A   Clear
3:55 AM 26.6 °F 16.8 °F 21.2 °F 80% 29.68 in 10.0 mi SE 10.4 mph - N/A   Clear
4:15 AM 28.4 °F 18.5 °F 21.2 °F 74% 29.67 in 10.0 mi SSE 11.5 mph - N/A   Clear
4:35 AM 30.2 °F 20.8 °F 23.0 °F 75% 29.68 in 10.0 mi SSE 11.5 mph - N/A   Clear
4:55 AM 30.2 °F 22.6 °F 23.0 °F 75% 29.68 in 10.0 mi SSE 8.1 mph - N/A   Clear
5:15 AM 28.4 °F 20.4 °F 23.0 °F 80% 29.68 in 10.0 mi SSE 8.1 mph - N/A   Clear
5:35 AM 30.2 °F 21.9 °F 23.0 °F 75% 29.69 in 10.0 mi South 9.2 mph - N/A   Clear
5:55 AM 28.4 °F 20.4 °F 23.0 °F 80% 29.69 in 10.0 mi SSE 8.1 mph - N/A   Clear
6:15 AM 28.4 °F 24.6 °F 23.0 °F 80% 29.69 in 10.0 mi SSE 3.5 mph - N/A   Clear
6:35 AM 28.4 °F 24.6 °F 23.0 °F 80% 29.70 in 10.0 mi South 3.5 mph - N/A   Clear
6:55 AM 26.6 °F 22.6 °F 23.0 °F 86% 29.71 in 10.0 mi WSW 3.5 mph - N/A   Clear
7:15 AM 26.6 °F 22.6 °F 23.0 °F 86% 29.72 in 10.0 mi WNW 3.5 mph - N/A   Clear
7:35 AM 26.6 °F 21.2 °F 23.0 °F 86% 29.74 in 10.0 mi WNW 4.6 mph - N/A   Scattered Clouds
7:55 AM 26.6 °F 21.2 °F 23.0 °F 86% 29.75 in 10.0 mi NW 4.6 mph - N/A   Overcast
8:15 AM 26.6 °F 22.6 °F 24.8 °F 93% 29.76 in 1.0 mi WNW 3.5 mph - N/A Snow Light Snow
8:35 AM 26.6 °F - 24.8 °F 93% 29.75 in 0.5 mi Calm Calm - N/A Snow Snow
8:55 AM 26.6 °F 22.6 °F 24.8 °F 93% 29.74 in 0.5 mi NW 3.5 mph - N/A Snow Snow
9:15 AM 26.6 °F 19.1 °F 24.8 °F 93% 29.72 in 0.5 mi NNW 6.9 mph - 0.01 in Snow Snow
9:35 AM 26.6 °F 22.6 °F 24.8 °F 93% 29.72 in 0.8 mi NW 3.5 mph - 0.01 in Snow Light Snow
9:55 AM 26.6 °F 18.2 °F 26.6 °F 100% 29.75 in 1.0 mi WNW 8.1 mph - 0.01 in Snow Light Snow
10:15 AM 26.6 °F 19.1 °F 26.6 °F 100% 29.78 in 0.5 mi WNW 6.9 mph - N/A Snow Snow
10:35 AM 26.6 °F 16.8 °F 24.8 °F 93% 29.78 in 0.5 mi WNW 10.4 mph - N/A Snow Snow
10:55 AM 26.6 °F 17.5 °F 23.0 °F 86% 29.80 in 0.5 mi WNW 9.2 mph - N/A Snow Snow
11:15 AM 24.8 °F 16.1 °F 23.0 °F 93% 29.80 in 0.5 mi WNW 8.1 mph - N/A Snow Snow
11:35 AM 24.8 °F 13.4 °F 23.0 °F 93% 29.80 in 0.5 mi West 12.7 mph - N/A Snow Snow
11:55 AM 19.4 °F 4.5 °F 17.6 °F 93% 29.80 in 0.8 mi NW 17.3 mph 21.9 mph N/A Snow Light Snow
12:15 PM 17.6 °F 2.7 °F 14.0 °F 86% 29.80 in 1.0 mi NW 16.1 mph 25.3 mph N/A Snow Light Snow
12:35 PM 17.6 °F 2.2 °F 14.0 °F 86% 29.80 in 0.5 mi NW 17.3 mph 25.3 mph N/A Snow Snow
12:55 PM 15.8 °F -1.5 °F 12.2 °F 86% 29.81 in 0.8 mi NW 20.7 mph 25.3 mph N/A Snow Light Snow
1:15 PM 14.0 °F -3.9 °F 10.4 °F 86% 29.81 in 0.8 mi NW 20.7 mph - N/A Snow Light Snow
1:35 PM 14.0 °F -3.0 °F 10.4 °F 86% 29.82 in 1.0 mi NW 18.4 mph 26.5 mph N/A Snow Light Snow
1:55 PM 14.0 °F -3.9 °F 10.4 °F 86% 29.83 in 1.5 mi NW 20.7 mph 25.3 mph N/A Snow Light Snow
2:15 PM 14.0 °F -3.9 °F 8.6 °F 79% 29.84 in 1.8 mi NW 20.7 mph - N/A Snow Light Snow
2:35 PM 12.2 °F -6.3 °F 6.8 °F 79% 29.85 in 1.8 mi NW 20.7 mph 27.6 mph N/A Snow Light Snow
2:55 PM 10.4 °F -9.1 °F 5.0 °F 79% 29.86 in 3.0 mi NW 21.9 mph - N/A   Haze
3:15 PM 10.4 °F -7.7 °F 5.0 °F 79% 29.86 in 3.0 mi NW 18.4 mph - N/A   Haze
3:35 PM 10.4 °F -8.6 °F 5.0 °F 79% 29.87 in 2.0 mi NW 20.7 mph - N/A Snow Light Snow
3:55 PM 8.6 °F -9.5 °F 3.2 °F 79% 29.87 in 3.0 mi NW 17.3 mph 25.3 mph N/A   Haze
4:15 PM 5.0 °F -14.2 °F 1.4 °F 85% 29.89 in 2.5 mi NW 17.3 mph - N/A Snow Light Snow
4:35 PM 5.0 °F - -0.4 °F 78% 29.90 in 4.0 mi North - - N/A Snow Light Snow
4:55 PM 5.0 °F - -0.4 °F 78% 29.91 in 7.0 mi North - - N/A   Overcast
5:15 PM 5.0 °F -15.2 °F -0.4 °F 78% 29.91 in 7.0 mi NNW 19.6 mph 23.0 mph N/A   Overcast
5:35 PM 5.0 °F - -0.4 °F 78% 29.91 in 5.0 mi North - - N/A Snow Light Snow
5:55 PM 5.0 °F -13.0 °F -0.4 °F 78% 29.91 in 5.0 mi NW 15.0 mph - N/A Snow Light Snow
6:15 PM 5.0 °F -11.6 °F 1.4 °F 85% 29.91 in 4.0 mi NNW 12.7 mph - N/A Snow Light Snow
6:35 PM 5.0 °F -10.0 °F 1.4 °F 85% 29.91 in 5.0 mi NNW 10.4 mph - N/A Snow Light Snow
6:55 PM 5.0 °F -10.0 °F -0.4 °F 78% 29.93 in 7.0 mi NNW 10.4 mph 18.4 mph N/A Snow Light Snow
7:15 PM 3.2 °F -10.3 °F -0.4 °F 85% 29.94 in 7.0 mi NNW 8.1 mph - N/A Snow Light Snow
7:35 PM 3.2 °F - -0.4 °F 85% 29.95 in 10.0 mi North - - N/A   Overcast
7:55 PM 3.2 °F - -2.2 °F 78% 29.95 in 5.0 mi North - - N/A Snow Light Snow
8:15 PM 3.2 °F - -4.0 °F 72% 29.95 in 10.0 mi North - - N/A Snow Light Snow
8:35 PM 1.4 °F - -4.0 °F 78% 29.95 in 10.0 mi North - - N/A   Scattered Clouds
8:55 PM 1.4 °F -15.3 °F -4.0 °F 78% 29.95 in 10.0 mi NNW 11.5 mph - N/A   Clear
9:15 PM 3.2 °F -11.3 °F -4.0 °F 72% 29.93 in 10.0 mi NNW 9.2 mph 16.1 mph N/A   Clear
9:35 PM 1.4 °F -16.1 °F -4.0 °F 78% 29.94 in 10.0 mi NNW 12.7 mph - N/A   Clear
9:55 PM 1.4 °F -15.3 °F -4.0 °F 78% 29.94 in 10.0 mi NW 11.5 mph 16.1 mph N/A   Clear
10:15 PM -0.4 °F -14.7 °F -5.8 °F 78% 29.94 in 10.0 mi North 8.1 mph - N/A   Clear
10:35 PM -0.4 °F -13.4 °F -5.8 °F 78% 29.93 in 10.0 mi NW 6.9 mph - N/A   Clear
10:55 PM -0.4 °F -13.4 °F -5.8 °F 78% 29.92 in 10.0 mi NW 6.9 mph - N/A   Clear
11:15 PM -0.4 °F -12.0 °F -5.8 °F 78% 29.92 in 10.0 mi NNW 5.8 mph - N/A   Clear
11:35 PM -0.4 °F -12.0 °F -5.8 °F 78% 29.92 in 10.0 mi NNW 5.8 mph - N/A   Clear
11:55 PM -0.4 °F -8.3 °F -5.8 °F 78% 29.91 in 10.0 mi NNW 3.5 mph - N/A   Clear